Hourly Data Report for September 15, 2017

All times are specified in Local Standard Time (LST). Add 1 hour to adjust for Daylight Saving Time where and when it is observed.

ST. STEPHEN
NEW BRUNSWICK

45°12'36.600" N
67°15'10.300" W
26.10 m
8104935
71607
WSS

Download Data

Hourly Data (September 2017)
Hourly Data Report for September 15, 2017
Temp Definition
°C
Dew Point Temp Definition
°C
Rel Hum Definition
%
Wind Dir Definition
10's deg

Wind Spd Definition
km/h
Visibility Definition
km
Stn Press Definition
kPa
Hmdx Definition


Wind Chill Definition


Weather Definition


TIME
00:00 14.4 13.6 95 8 3   101.01     LegendNANA
01:00 13.7 13.0 95 0 1   101.05     LegendNANA
02:00 13.0 12.3 96 0 1   101.07     LegendNANA
03:00 12.5 11.9 96   0   101.12     LegendNANA
04:00 12.3 11.7 96 0 1   101.17     LegendNANA
05:00 11.6 11.0 96   0   101.27     LegendNANA
06:00 11.0 10.4 96   0   101.35     LegendNANA
07:00 11.6 11.1 97   0   101.45     LegendNANA
08:00 15.2 14.1 93   0   101.49     LegendNANA
09:00 19.0 13.4 70 7 9   101.56     LegendNANA
10:00 20.8 13.6 63 9 8   101.63     LegendNANA
11:00 21.7 14.6 64 12 8   101.62 25   LegendNANA
12:00 21.7 15.3 67 12 6   101.62 26   LegendNANA
13:00 24.2 16.2 61 13 8   101.59 29   LegendNANA
14:00 23.3 16.1 64 11 9   101.57 28   LegendNANA
15:00 22.1 15.3 65 10 10   101.57 26   LegendNANA
16:00 21.5 15.4 69 12 10   101.59 26   LegendNANA
17:00 19.8 15.1 74 12 10   101.64     LegendNANA
18:00 17.3 14.8 85 11 5   101.66     LegendNANA
19:00 15.8 14.4 91 10 3   101.68     LegendNANA
20:00 15.0 14.0 94 10 5   101.70     LegendNANA
21:00 15.1 14.4 96 10 4   101.74     LegendNANA
22:00 15.0 14.3 96 12 6   101.74     LegendNANA
23:00 14.9 14.4 97 4 2   101.74     LegendNANA

Notes on Data Quality.

Legend

  • E = Estimated
  • M = Missing
  • NA = Not Available
  • ‡ = Partner data that is not subject to review by the National Climate Archives
Date modified: